Regional Weather Roundup
Issued by NWS

Home | Current Version | Previous Version | Graphics & Text | Print | Product List | Glossary On
Versions: 1 2 3 4 5 6 7 8 9 10 11 12 13 14 15 16 17 18 19 20 21 22 23 24 25 26 27 28 29 30 31 32 33 34 35 36 37 38 39 40 41 42 43 44 45 46 47 48 49 50
000
ASUS45 KBOU 200110
RWRCO

WEATHER ROUNDUP FOR COLORADO
NATIONAL WEATHER SERVICE DENVER/BOULDER CO
600 PM MST FRI JAN 19 2018

NOTE: "FAIR" INDICATES FEW OR NO CLOUDS BELOW 12000 FEET WITH NO
SIGNIFICANT WEATHER AND/OR OBSTRUCTIONS TO VISIBILITY.

COZ001>005-013-030-031-200200-
...NORTHWEST COLORADO...

CITY           SKY/WX    TMP DP  RH WIND       PRES   REMARKS
CRAIG          FAIR      39  25  57 W7        29.83S
HAYDEN         FAIR     N/A N/A N/A N7        29.84S
MEEKER         FAIR      41  23  48 E5        29.85S
RABBIT EARS PA FAIR      30  19  64 W12G22    29.92S WCI  21
STEAMBOAT SPGS FAIR      41  22  46 E3        29.84S
WALDEN         FAIR      39  18  41 SW17G24   29.87S
$$

COZ006>008-011-200200-
...WEST CENTRAL VALLEYS...

CITY           SKY/WX    TMP DP  RH WIND       PRES   REMARKS
GRAND JUNCTION FAIR      38  21  50 NE5       29.87S
MONTROSE       FAIR      48  21  34 E6        29.90F
EAGLE          FAIR      42  18  37 SE8       29.89R
RIFLE          FAIR      40  23  50 S3        29.87S
DELTA          FAIR      50  20  30 N7        29.88S
NUCLA          FAIR      50  19  29 S7        29.97S
$$

COZ017>023-064>068-200200-
...SOUTHWEST COLORADO...

CITY           SKY/WX    TMP DP  RH WIND       PRES   REMARKS
DURANGO        FAIR      47  18  31 CALM      29.99S
CORTEZ         FAIR      40  19  43 SE5       29.96S
PAGOSA SPRINGS FAIR      44  14  30 SW3       30.03S
TELLURIDE      MOCLDY    45  17  31 CALM      30.06S
WOLF CREEK PAS NOT AVBL
$$

COZ009-010-012-014-032>034-037-058>063-200200-
...CENTRAL COLORADO...

CITY           SKY/WX    TMP DP  RH WIND       PRES   REMARKS
ASPEN          FAIR      42  22  44 CALM      29.90F
BUENA VISTA    FAIR      47  14  26 W10G23    29.92S
COPPER MTN     NOT AVBL
BERTHOUD PASS  FAIR      28  16  59 W37G56    30.01R WCI  11
COTTONWOOD PAS   N/A     46  14  27 W5G20     29.98S
GUNNISON       FAIR      32  17  54 CALM      29.97S
KREMMLING      FAIR      48  19  32 SW9G18    29.87S
LEADVILLE      FAIR      32  13  45 E6        29.97S WCI  26
MONARCH PASS   FAIR      30  16  55 W41G51    30.15S WCI  13
SALIDA         FAIR      50  16  25 SW14      29.99S
SUNLIGHT       FAIR      30  18  59 SW17G29   30.02S WCI  18
WILKERSON PASS FAIR      36   5  27 SW20G31   30.01F
$$

COZ069>075-200200-
...SAN LUIS VALLEY/SANGRE DE CRISTO MOUNTAINS...

CITY           SKY/WX    TMP DP  RH WIND       PRES   REMARKS
ALAMOSA        FAIR      39   8  27 VRB5      29.95R
DEL NORTE      FAIR      31   3  30 CALM      29.98R
LA VETA PASS   FAIR      39  16  38 S24G37      N/A
SAGUACHE       FAIR      32   5  32 N5        29.98S WCI  27
$$

COZ035-036-038>040-200200-
...NORTHERN COLORADO FRONT RANGE...

CITY           SKY/WX    TMP DP  RH WIND       PRES   REMARKS
DENVER INTL AP MOCLDY    46  20  35 SE10      29.73R
DMNS CITY PARK NOT AVBL
AURORA         MOCLDY    50  17  27 E8        29.75R
FRONT RANGE AP NOT AVBL
ERIE MUNI ARPT FAIR      54  13  19 S6        29.77R
BOULDER MUN AP FAIR      63  14  15 W16G28    29.72R
CENTENNIAL     MOCLDY    59  14  17 NW6       29.75R
BROOMFIELD     MOCLDY    59  14  17 W6        29.75R
FORT COLLINS   FAIR      56  18  22 SW6       29.72R
LONGMONT       NOT AVBL
$$

COZ041-046-047-076>085-087-088-200200-
...PIKES PEAK/PALMER DIVIDE AND SOUTHERN FOOTHILLS...

CITY           SKY/WX    TMP DP  RH WIND       PRES   REMARKS
COLO. SPRINGS  MOCLDY    54  16  22 W6        29.82R
A. F. ACADEMY  FAIR      55  12  18 S3        29.82R
SCHRIEVER AFB  FAIR      51  13  22 W10       29.82R
CHEYENNE MTN   FAIR      54  15  21 S5        29.81R
ELLICOTT         N/A    N/A N/A N/A SW14      29.79S
FALCON         FAIR      48  12  23 SW7       29.85R
FORT CARSON    FAIR      57  15  19 SW9       29.80R
LIMON          FAIR      36  20  52 N9        29.76R
MONUMENT HILL  FAIR      50  12  22 SW10      29.84R
CANON CITY     FAIR      61  19  20 W13       29.79S
WALSENBURG     FAIR      50  18  27 W12       29.85R
TRINIDAD       FAIR      54  15  21 W14       29.83R
$$

COZ042>045-048>051-090-091-200200-
...NORTHEAST COLORADO...

CITY           SKY/WX    TMP DP  RH WIND       PRES   REMARKS
GREELEY ARPT   FAIR      40  23  50 N8        29.72R
AKRON          FAIR      41  23  48 S7        29.72R
BURLINGTON     FAIR      51  19  28 E8        29.73R
WRAY           FAIR      46  23  39 CALM      29.71S
YUMA           FAIR      41  18  38 CALM      29.71S
STERLING       FAIR      36  25  64 SW7       29.70R
HOLYOKE        FAIR      41  25  52 SW6       29.71R
FORT MORGAN    FAIR      40  18  41 CALM      29.72R
$$

COZ086-089-092>099-200200-
...SOUTHEAST COLORADO...

CITY           SKY/WX    TMP DP  RH WIND       PRES   REMARKS
PUEBLO         FAIR      63  16  16 W13       29.76R
LA JUNTA       FAIR      54  19  25 SW10      29.72R
LAMAR          FAIR      53  16  23 S7        29.68S
SPRINGFIELD      N/A     50  14  23 SW7       29.75R
$$



USA.gov is the U.S. government's official web portal to all federal, state and local government web resources and services.